"Sample Date","Sample Time","Sample Value","Units","Flow Rate","Sample Interval","Number Channels","Micron Size 0","Counts/Channel 0","Micron Size 1","Counts/Channel 1","Micron Size 2","Counts/Channel 2","Micron Size 3","Counts/Channel 3","Micron Size 4","Counts/Channel 4","Micron Size 5","Counts/Channel 5","Micron Size 6","Counts/Channel 6","Micron Size 7","Counts/Channel 7","Micron Size 8","Counts/Channel 8","Micron Size 9","Counts/Channel 9","Micron Size 10","Counts/Channel 10","Micron Size 11","Counts/Channel 11","Micron Size 12","Counts/Channel 12","Micron Size 13","Counts/Channel 13","Micron Size 14","Counts/Channel 14","Micron Size 15","Counts/Channel 15","Micron Size 16","Counts/Channel 16","Micron Size 17","Counts/Channel 17","Micron Size 18","Counts/Channel 18","Micron Size 19","Counts/Channel 19","Micron Size 20","Counts/Channel 20","Micron Size 21","Counts/Channel 21","Micron Size 22","Counts/Channel 22","Micron Size 23","Counts/Channel 23","Micron Size 24","Counts/Channel 24","Micron Size 25","Counts/Channel 25","Micron Size 26","Counts/Channel 26","Micron Size 27","Counts/Channel 27","Micron Size 28","Counts/Channel 28","Micron Size 29","Counts/Channel 29","Micron Size 30","Counts/Channel 30","Micron Size 31","Counts/Channel 31"
"04/09/08","11:00:01",32566.000,"cc",28333.434,6.00,6,0.100,22304.000,0.200,4659.000,0.300,2217.000,0.500,2440.000,1.000,946.000,5.000,0
"04/09/08","11:00:07",32655.000,"cc",28274.854,6.00,6,0.100,22376.000,0.200,4652.000,0.300,2268.000,0.500,2392.000,1.000,967.000,5.000,0
"04/09/08","11:00:13",32878.000,"cc",28320.193,6.00,6,0.100,22596.000,0.200,4731.000,0.300,2151.000,0.500,2417.000,1.000,983.000,5.000,0
"04/09/08","11:00:19",32917.000,"cc",28368.102,6.00,6,0.100,22598.000,0.200,4769.000,0.300,2168.000,0.500,2400.000,1.000,981.000,5.000,1.000
"04/09/08","11:00:25",32819.000,"cc",28328.897,6.00,6,0.100,22498.000,0.200,4591.000,0.300,2223.000,0.500,2483.000,1.000,1023.000,5.000,1.000
"04/09/08","11:00:31",32713.000,"cc",28343.229,6.00,6,0.100,22580.000,0.200,4568.000,0.300,2247.000,0.500,2324.000,1.000,994.000,5.000,0
"04/09/08","11:00:37",32551.000,"cc",28295.658,6.00,6,0.100,22376.000,0.200,4621.000,0.300,2201.000,0.500,2328.000,1.000,1025.000,5.000,0
"04/09/08","11:00:43",32874.000,"cc",28276.637,6.00,6,0.100,22443.000,0.200,4829.000,0.300,2220.000,0.500,2325.000,1.000,1056.000,5.000,1.000
"04/09/08","11:00:49",33249.000,"cc",28313.602,6.00,6,0.100,22856.000,0.200,4784.000,0.300,2276.000,0.500,2376.000,1.000,957.000,5.000,0
"04/09/08","11:00:55",32701.000,"cc",28343.398,6.00,6,0.100,22534.000,0.200,4678.000,0.300,2185.000,0.500,2413.000,1.000,891.000,5.000,0
"04/09/08","11:01:01",32836.000,"cc",28299.352,6.00,6,0.100,22752.000,0.200,4624.000,0.300,2212.000,0.500,2312.000,1.000,936.000,5.000,0
"04/09/08","11:01:07",33159.000,"cc",28348.289,6.00,6,0.100,22704.000,0.200,4784.000,0.300,2232.000,0.500,2484.000,1.000,954.000,5.000,1.000
"04/09/08","11:01:13",32753.000,"cc",28370.879,6.00,6,0.100,22461.000,0.200,4606.000,0.300,2171.000,0.500,2435.000,1.000,1079.000,5.000,1.000
"04/09/08","11:01:19",32797.000,"cc",28309.066,6.00,6,0.100,22602.000,0.200,4690.000,0.300,2201.000,0.500,2320.000,1.000,984.000,5.000,0
"04/09/08","11:01:25",32462.000,"cc",28281.979,6.00,6,0.100,22413.000,0.200,4515.000,0.300,2204.000,0.500,2358.000,1.000,972.000,5.000,0
"04/09/08","11:01:31",32566.000,"cc",28283.838,6.00,6,0.100,22513.000,0.200,4559.000,0.300,2247.000,0.500,2271.000,1.000,976.000,5.000,0
"04/09/08","11:01:37",32768.000,"cc",28304.106,6.00,6,0.100,22485.000,0.200,4735.000,0.300,2239.000,0.500,2332.000,1.000,977.000,5.000,0
"04/09/08","11:01:43",32605.000,"cc",28275.973,6.00,6,0.100,22511.000,0.200,4676.000,0.300,2196.000,0.500,2311.000,1.000,910.000,5.000,1.000
"04/09/08","11:01:49",32491.000,"cc",28343.754,6.00,6,0.100,22509.000,0.200,4555.000,0.300,2242.000,0.500,2260.000,1.000,924.000,5.000,1.000
"04/09/08","11:01:55",32548.000,"cc",28330.477,6.00,6,0.100,22480.000,0.200,4571.000,0.300,2190.000,0.500,2330.000,1.000,977.000,5.000,0
"04/09/08","11:02:01",32675.000,"cc",28325.213,6.00,6,0.100,22730.000,0.200,4496.000,0.300,2133.000,0.500,2373.000,1.000,943.000,5.000,0
"04/09/08","11:02:07",32377.000,"cc",28343.760,6.00,6,0.100,22336.000,0.200,4570.000,0.300,2133.000,0.500,2395.000,1.000,941.000,5.000,2.000
"04/09/08","11:02:13",32473.000,"cc",28427.565,6.00,6,0.100,22392.000,0.200,4646.000,0.300,2158.000,0.500,2283.000,1.000,992.000,5.000,2.000
"04/09/08","11:02:19",32917.000,"cc",28355.250,6.00,6,0.100,22712.000,0.200,4689.000,0.300,2154.000,0.500,2353.000,1.000,1009.000,5.000,0
"04/09/08","11:02:25",32932.000,"cc",28335.898,6.00,6,0.100,22752.000,0.200,4635.000,0.300,2150.000,0.500,2400.000,1.000,994.000,5.000,1.000
"04/09/08","11:02:31",32361.000,"cc",28322.984,6.00,6,0.100,22321.000,0.200,4590.000,0.300,2214.000,0.500,2267.000,1.000,969.000,5.000,0
"04/09/08","11:02:37",32327.000,"cc",28275.018,6.00,6,0.100,22462.000,0.200,4571.000,0.300,2092.000,0.500,2281.000,1.000,920.000,5.000,1.000
"04/09/08","11:02:43",32686.000,"cc",28311.258,6.00,6,0.100,22679.000,0.200,4618.000,0.300,2171.000,0.500,2254.000,1.000,964.000,5.000,0
"04/09/08","11:02:49",32020.000,"cc",28327.947,6.00,6,0.100,22382.000,0.200,4438.000,0.300,2115.000,0.500,2207.000,1.000,877.000,5.000,1.000
"04/09/08","11:02:55",32157.000,"cc",28333.158,6.00,6,0.100,22463.000,0.200,4467.000,0.300,2051.000,0.500,2242.000,1.000,934.000,5.000,0
"04/09/08","11:03:01",32026.000,"cc",28318.805,6.00,6,0.100,22272.000,0.200,4504.000,0.300,2043.000,0.500,2266.000,1.000,941.000,5.000,0
"04/09/08","11:03:07",32142.000,"cc",28250.320,6.00,6,0.100,22409.000,0.200,4516.000,0.300,2029.000,0.500,2295.000,1.000,891.000,5.000,2.000
"04/09/08","11:03:13",32275.000,"cc",28308.344,6.00,6,0.100,22589.000,0.200,4502.000,0.300,2129.000,0.500,2189.000,1.000,866.000,5.000,0
"04/09/08","11:03:19",32665.000,"cc",28305.563,6.00,6,0.100,22791.000,0.200,4503.000,0.300,2190.000,0.500,2220.000,1.000,961.000,5.000,0
"04/09/08","11:03:25",32724.000,"cc",28312.898,6.00,6,0.100,22844.000,0.200,4564.000,0.300,2134.000,0.500,2258.000,1.000,923.000,5.000,1.000
"04/09/08","11:03:31",32717.000,"cc",28211.865,6.00,6,0.100,22722.000,0.200,4583.000,0.300,2147.000,0.500,2313.000,1.000,952.000,5.000,0
"04/09/08","11:03:37",32660.000,"cc",28414.590,6.00,6,0.100,22640.000,0.200,4566.000,0.300,2204.000,0.500,2272.000,1.000,977.000,5.000,1.000
"04/09/08","11:03:43",32831.000,"cc",28350.408,6.00,6,0.100,22899.000,0.200,4715.000,0.300,2086.000,0.500,2218.000,1.000,913.000,5.000,0
"04/09/08","11:03:49",32240.000,"cc",28244.180,6.00,6,0.100,22675.000,0.200,4502.000,0.300,1987.000,0.500,2201.000,1.000,874.000,5.000,1.000
"04/09/08","11:03:55",32916.000,"cc",28306.940,6.00,6,0.100,22806.000,0.200,4678.000,0.300,2237.000,0.500,2239.000,1.000,956.000,5.000,0
"04/09/08","11:04:01",32302.000,"cc",28376.137,6.00,6,0.100,22401.000,0.200,4617.000,0.300,2126.000,0.500,2220.000,1.000,937.000,5.000,1.000
"04/09/08","11:04:07",32269.000,"cc",28361.387,6.00,6,0.100,22783.000,0.200,4373.000,0.300,2036.000,0.500,2226.000,1.000,849.000,5.000,2.000
"04/09/08","11:04:13",32227.000,"cc",28358.047,6.00,6,0.100,22637.000,0.200,4473.000,0.300,2012.000,0.500,2226.000,1.000,878.000,5.000,1.000
"04/09/08","11:04:19",32066.000,"cc",28309.049,6.00,6,0.100,22249.000,0.200,4424.000,0.300,2121.000,0.500,2304.000,1.000,967.000,5.000,1.000
"04/09/08","11:04:25",32537.000,"cc",28190.795,6.00,6,0.100,22503.000,0.200,4591.000,0.300,2122.000,0.500,2332.000,1.000,986.000,5.000,3.000
"04/09/08","11:04:31",32325.000,"cc",28231.455,6.00,6,0.100,22504.000,0.200,4580.000,0.300,2094.000,0.500,2190.000,1.000,957.000,5.000,0
"04/09/08","11:04:37",32885.000,"cc",28398.004,6.00,6,0.100,22827.000,0.200,4707.000,0.300,2129.000,0.500,2314.000,1.000,908.000,5.000,0
"04/09/08","11:04:43",32309.000,"cc",28337.578,6.00,6,0.100,22496.000,0.200,4595.000,0.300,2024.000,0.500,2250.000,1.000,944.000,5.000,0
"04/09/08","11:04:49",32566.000,"cc",28285.633,6.00,6,0.100,22746.000,0.200,4536.000,0.300,2132.000,0.500,2191.000,1.000,959.000,5.000,2.000
"04/09/08","11:04:55",32606.000,"cc",28306.850,6.00,6,0.100,22665.000,0.200,4614.000,0.300,2105.000,0.500,2309.000,1.000,911.000,5.000,2.000
"04/09/08","11:05:01",31936.000,"cc",28360.004,6.00,6,0.100,22227.000,0.200,4438.000,0.300,2160.000,0.500,2212.000,1.000,898.000,5.000,1.000
"04/09/08","11:05:07",32550.000,"cc",28333.467,6.00,6,0.100,22779.000,0.200,4519.000,0.300,2052.000,0.500,2293.000,1.000,907.000,5.000,0
"04/09/08","11:05:13",32328.000,"cc",28225.010,6.00,6,0.100,22682.000,0.200,4480.000,0.300,2090.000,0.500,2171.000,1.000,903.000,5.000,2.000
"04/09/08","11:05:19",32460.000,"cc",28327.410,6.00,6,0.100,22733.000,0.200,4507.000,0.300,2157.000,0.500,2160.000,1.000,901.000,5.000,2.000
"04/09/08","11:05:25",33008.000,"cc",28377.400,6.00,6,0.100,23023.000,0.200,4577.000,0.300,2125.000,0.500,2298.000,1.000,985.000,5.000,0
"04/09/08","11:05:31",32996.000,"cc",28273.301,6.00,6,0.100,22661.000,0.200,4719.000,0.300,2177.000,0.500,2442.000,1.000,996.000,5.000,1.000
"04/09/08","11:05:37",32839.000,"cc",28265.475,6.00,6,0.100,22778.000,0.200,4633.000,0.300,2148.000,0.500,2352.000,1.000,926.000,5.000,2.000
"04/09/08","11:05:43",32590.000,"cc",28375.066,6.00,6,0.100,22669.000,0.200,4597.000,0.300,2081.000,0.500,2299.000,1.000,943.000,5.000,1.000
"04/09/08","11:05:49",32596.000,"cc",28367.916,6.00,6,0.100,22709.000,0.200,4553.000,0.300,2111.000,0.500,2263.000,1.000,959.000,5.000,1.000
"04/09/08","11:05:55",32224.000,"cc",28280.027,6.00,6,0.100,22623.000,0.200,4508.000,0.300,1994.000,0.500,2178.000,1.000,921.000,5.000,0
"04/09/08","11:06:01",32056.000,"cc",28211.859,6.00,6,0.100,22183.000,0.200,4581.000,0.300,2117.000,0.500,2209.000,1.000,964.000,5.000,2.000
"04/09/08","11:06:07",32171.000,"cc",28348.316,6.00,6,0.100,22524.000,0.200,4442.000,0.300,2074.000,0.500,2198.000,1.000,931.000,5.000,2.000
"04/09/08","11:06:13",32497.000,"cc",28384.119,6.00,6,0.100,22520.000,0.200,4682.000,0.300,2120.000,0.500,2219.000,1.000,955.000,5.000,1.000
"04/09/08","11:06:19",32813.000,"cc",28302.920,6.00,6,0.100,22855.000,0.200,4550.000,0.300,2199.000,0.500,2239.000,1.000,969.000,5.000,1.000
"04/09/08","11:06:25",32697.000,"cc",28317.061,6.00,6,0.100,22718.000,0.200,4632.000,0.300,2118.000,0.500,2285.000,1.000,943.000,5.000,1.000
"04/09/08","11:06:31",32774.000,"cc",28271.395,6.00,6,0.100,22730.000,0.200,4720.000,0.300,2099.000,0.500,2249.000,1.000,976.000,5.000,0
"04/09/08","11:06:37",32072.000,"cc",28350.721,6.00,6,0.100,22210.000,0.200,4684.000,0.300,2078.000,0.500,2164.000,1.000,936.000,5.000,0
"04/09/08","11:06:43",32488.000,"cc",28309.715,6.00,6,0.100,22474.000,0.200,4640.000,0.300,2218.000,0.500,2263.000,1.000,893.000,5.000,0
"04/09/08","11:06:49",33003.000,"cc",28244.098,6.00,6,0.100,22812.000,0.200,4541.000,0.300,2230.000,0.500,2437.000,1.000,981.000,5.000,2.000
"04/09/08","11:06:55",32806.000,"cc",28332.162,6.00,6,0.100,22614.000,0.200,4668.000,0.300,2223.000,0.500,2321.000,1.000,980.000,5.000,0
"04/09/08","11:07:01",32618.000,"cc",28259.779,6.00,6,0.100,22706.000,0.200,4454.000,0.300,2186.000,0.500,2307.000,1.000,965.000,5.000,0
"04/09/08","11:07:07",32776.000,"cc",28366.690,6.00,6,0.100,22669.000,0.200,4627.000,0.300,2212.000,0.500,2291.000,1.000,976.000,5.000,1.000
"04/09/08","11:07:13",32807.000,"cc",28283.418,6.00,6,0.100,22810.000,0.200,4535.000,0.300,2194.000,0.500,2304.000,1.000,963.000,5.000,1.000
"04/09/08","11:07:19",32482.000,"cc",28388.096,6.00,6,0.100,22573.000,0.200,4593.000,0.300,2071.000,0.500,2300.000,1.000,943.000,5.000,2.000
"04/09/08","11:07:25",32780.000,"cc",28391.859,6.00,6,0.100,22660.000,0.200,4637.000,0.300,2164.000,0.500,2336.000,1.000,980.000,5.000,3.000
"04/09/08","11:07:31",33237.000,"cc",28271.977,6.00,6,0.100,22946.000,0.200,4652.000,0.300,2258.000,0.500,2429.000,1.000,951.000,5.000,1.000
"04/09/08","11:07:37",33280.000,"cc",28328.613,6.00,6,0.100,22920.000,0.200,4712.000,0.300,2282.000,0.500,2376.000,1.000,990.000,5.000,0
"04/09/08","11:07:43",32964.000,"cc",28275.516,6.00,6,0.100,22625.000,0.200,4786.000,0.300,2228.000,0.500,2318.000,1.000,1007.000,5.000,0
"04/09/08","11:07:49",33304.000,"cc",28290.572,6.00,6,0.100,22953.000,0.200,4767.000,0.300,2227.000,0.500,2372.000,1.000,985.000,5.000,0
"04/09/08","11:07:55",33178.000,"cc",28306.660,6.00,6,0.100,22760.000,0.200,4653.000,0.300,2340.000,0.500,2476.000,1.000,947.000,5.000,2.000
"04/09/08","11:08:01",33177.000,"cc",28341.297,6.00,6,0.100,22969.000,0.200,4633.000,0.300,2277.000,0.500,2316.000,1.000,982.000,5.000,0
"04/09/08","11:08:07",33455.000,"cc",28336.315,6.00,6,0.100,22965.000,0.200,4829.000,0.300,2261.000,0.500,2393.000,1.000,1007.000,5.000,0
"04/09/08","11:08:13",33123.000,"cc",28291.684,6.00,6,0.100,23015.000,0.200,4652.000,0.300,2157.000,0.500,2354.000,1.000,945.000,5.000,0
"04/09/08","11:08:19",33887.000,"cc",28336.871,6.00,6,0.100,23136.000,0.200,4816.000,0.300,2362.000,0.500,2490.000,1.000,1083.000,5.000,0
"04/09/08","11:08:25",33820.000,"cc",28300.816,6.00,6,0.100,22985.000,0.200,4812.000,0.300,2425.000,0.500,2547.000,1.000,1051.000,5.000,0
"04/09/08","11:08:31",32933.000,"cc",28270.371,6.00,6,0.100,22573.000,0.200,4743.000,0.300,2212.000,0.500,2338.000,1.000,1066.000,5.000,1.000
"04/09/08","11:08:37",32837.000,"cc",28277.115,6.00,6,0.100,22792.000,0.200,4675.000,0.300,2143.000,0.500,2308.000,1.000,919.000,5.000,0
"04/09/08","11:08:43",32515.000,"cc",28402.547,6.00,6,0.100,22668.000,0.200,4482.000,0.300,2081.000,0.500,2302.000,1.000,981.000,5.000,1.000
"04/09/08","11:08:49",32376.000,"cc",28311.690,6.00,6,0.100,22622.000,0.200,4517.000,0.300,2077.000,0.500,2212.000,1.000,947.000,5.000,1.000
"04/09/08","11:08:55",32117.000,"cc",28251.082,6.00,6,0.100,22302.000,0.200,4511.000,0.300,2105.000,0.500,2279.000,1.000,920.000,5.000,0
"04/09/08","11:09:01",32651.000,"cc",28370.570,6.00,6,0.100,22723.000,0.200,4535.000,0.300,2165.000,0.500,2274.000,1.000,953.000,5.000,1.000
"04/09/08","11:09:07",32769.000,"cc",28350.875,6.00,6,0.100,22822.000,0.200,4662.000,0.300,2115.000,0.500,2257.000,1.000,912.000,5.000,1.000
"04/09/08","11:09:13",32102.000,"cc",28200.273,6.00,6,0.100,22312.000,0.200,4568.000,0.300,2018.000,0.500,2245.000,1.000,959.000,5.000,0
"04/09/08","11:09:19",32400.000,"cc",28345.297,6.00,6,0.100,22442.000,0.200,4585.000,0.300,2114.000,0.500,2316.000,1.000,943.000,5.000,0
"04/09/08","11:09:25",33171.000,"cc",28348.832,6.00,6,0.100,22858.000,0.200,4634.000,0.300,2251.000,0.500,2455.000,1.000,972.000,5.000,1.000
"04/09/08","11:09:31",32982.000,"cc",28275.516,6.00,6,0.100,22814.000,0.200,4687.000,0.300,2214.000,0.500,2321.000,1.000,946.000,5.000,0
"04/09/08","11:09:37",32673.000,"cc",28343.307,6.00,6,0.100,22626.000,0.200,4606.000,0.300,2173.000,0.500,2362.000,1.000,906.000,5.000,0
"04/09/08","11:09:43",33336.000,"cc",28378.525,6.00,6,0.100,22761.000,0.200,4871.000,0.300,2243.000,0.500,2444.000,1.000,1017.000,5.000,0
"04/09/08","11:09:49",33002.000,"cc",28274.414,6.00,6,0.100,22790.000,0.200,4705.000,0.300,2092.000,0.500,2433.000,1.000,981.000,5.000,1.000
"04/09/08","11:09:55",32906.000,"cc",28283.666,6.00,6,0.100,22786.000,0.200,4665.000,0.300,2214.000,0.500,2239.000,1.000,1001.000,5.000,1.000
"04/09/08","11:10:01",32890.000,"cc",28312.576,6.00,6,0.100,22717.000,0.200,4723.000,0.300,2280.000,0.500,2234.000,1.000,936.000,5.000,0
"04/09/08","11:10:07",33135.000,"cc",28357.231,6.00,6,0.100,23050.000,0.200,4649.000,0.300,2170.000,0.500,2319.000,1.000,946.000,5.000,1.000
"04/09/08","11:10:13",32780.000,"cc",28324.766,6.00,6,0.100,22849.000,0.200,4598.000,0.300,2111.000,0.500,2306.000,1.000,916.000,5.000,0
"04/09/08","11:10:19",32812.000,"cc",28319.391,6.00,6,0.100,22822.000,0.200,4588.000,0.300,2147.000,0.500,2296.000,1.000,959.000,5.000,0
"04/09/08","11:10:25",32665.000,"cc",28326.533,6.00,6,0.100,22659.000,0.200,4621.000,0.300,2127.000,0.500,2283.000,1.000,972.000,5.000,3.000
"04/09/08","11:10:31",32602.000,"cc",28316.863,6.00,6,0.100,22518.000,0.200,4678.000,0.300,2172.000,0.500,2216.000,1.000,1017.000,5.000,1.000
"04/09/08","11:10:37",32474.000,"cc",28239.656,6.00,6,0.100,22602.000,0.200,4545.000,0.300,2081.000,0.500,2306.000,1.000,939.000,5.000,1.000
"04/09/08","11:10:43",33061.000,"cc",28339.734,6.00,6,0.100,22982.000,0.200,4654.000,0.300,2234.000,0.500,2303.000,1.000,886.000,5.000,2.000
"04/09/08","11:10:49",32825.000,"cc",28314.570,6.00,6,0.100,22918.000,0.200,4574.000,0.300,2129.000,0.500,2300.000,1.000,904.000,5.000,0
"04/09/08","11:10:55",32526.000,"cc",28394.510,6.00,6,0.100,22495.000,0.200,4644.000,0.300,2121.000,0.500,2335.000,1.000,931.000,5.000,0
"04/09/08","11:11:01",32766.000,"cc",28255.877,6.00,6,0.100,22752.000,0.200,4589.000,0.300,2135.000,0.500,2308.000,1.000,980.000,5.000,2.000
"04/09/08","11:11:07",32598.000,"cc",28349.598,6.00,6,0.100,22590.000,0.200,4646.000,0.300,2030.000,0.500,2308.000,1.000,1024.000,5.000,0
"04/09/08","11:11:13",32737.000,"cc",28292.496,6.00,6,0.100,22697.000,0.200,4661.000,0.300,2102.000,0.500,2302.000,1.000,974.000,5.000,1.000
"04/09/08","11:11:19",33333.000,"cc",28264.428,6.00,6,0.100,22871.000,0.200,4720.000,0.300,2255.000,0.500,2491.000,1.000,994.000,5.000,2.000
"04/09/08","11:11:25",32968.000,"cc",28359.412,6.00,6,0.100,22854.000,0.200,4710.000,0.300,2145.000,0.500,2278.000,1.000,981.000,5.000,0
"04/09/08","11:11:31",32687.000,"cc",28426.404,6.00,6,0.100,22653.000,0.200,4631.000,0.300,2103.000,0.500,2345.000,1.000,955.000,5.000,0
"04/09/08","11:11:37",33058.000,"cc",28266.928,6.00,6,0.100,23013.000,0.200,4505.000,0.300,2149.000,0.500,2340.000,1.000,1050.000,5.000,1.000
"04/09/08","11:11:43",33122.000,"cc",28197.811,6.00,6,0.100,22763.000,0.200,4771.000,0.300,2197.000,0.500,2401.000,1.000,990.000,5.000,0
"04/09/08","11:11:49",33208.000,"cc",28274.332,6.00,6,0.100,22773.000,0.200,4775.000,0.300,2212.000,0.500,2451.000,1.000,996.000,5.000,1.000
"04/09/08","11:11:55",32933.000,"cc",28293.914,6.00,6,0.100,22756.000,0.200,4596.000,0.300,2185.000,0.500,2360.000,1.000,1035.000,5.000,1.000
"04/09/08","11:12:01",33035.000,"cc",28322.563,6.00,6,0.100,22768.000,0.200,4713.000,0.300,2192.000,0.500,2453.000,1.000,909.000,5.000,0
"04/09/08","11:12:07",33299.000,"cc",28333.375,6.00,6,0.100,22966.000,0.200,4800.000,0.300,2200.000,0.500,2353.000,1.000,980.000,5.000,0
"04/09/08","11:12:13",32759.000,"cc",28298.721,6.00,6,0.100,22723.000,0.200,4598.000,0.300,2178.000,0.500,2294.000,1.000,965.000,5.000,1.000
"04/09/08","11:12:19",32587.000,"cc",28408.467,6.00,6,0.100,22574.000,0.200,4692.000,0.300,2130.000,0.500,2292.000,1.000,897.000,5.000,2.000
"04/09/08","11:12:25",32689.000,"cc",28232.440,6.00,6,0.100,22676.000,0.200,4613.000,0.300,2174.000,0.500,2263.000,1.000,963.000,5.000,0
"04/09/08","11:12:31",32683.000,"cc",28329.824,6.00,6,0.100,22584.000,0.200,4644.000,0.300,2168.000,0.500,2337.000,1.000,950.000,5.000,0
"04/09/08","11:12:37",33016.000,"cc",28289.414,6.00,6,0.100,22876.000,0.200,4752.000,0.300,2156.000,0.500,2273.000,1.000,959.000,5.000,0
"04/09/08","11:12:43",32844.000,"cc",28400.191,6.00,6,0.100,22679.000,0.200,4540.000,0.300,2190.000,0.500,2416.000,1.000,1017.000,5.000,2.000
"04/09/08","11:12:49",33022.000,"cc",28316.863,6.00,6,0.100,22785.000,0.200,4743.000,0.300,2188.000,0.500,2350.000,1.000,956.000,5.000,0
"04/09/08","11:12:55",32640.000,"cc",28292.586,6.00,6,0.100,22433.000,0.200,4599.000,0.300,2288.000,0.500,2321.000,1.000,998.000,5.000,1.000
"04/09/08","11:13:01",32853.000,"cc",28264.145,6.00,6,0.100,22746.000,0.200,4723.000,0.300,2108.000,0.500,2316.000,1.000,960.000,5.000,0
"04/09/08","11:13:07",33316.000,"cc",28350.611,6.00,6,0.100,23047.000,0.200,4636.000,0.300,2215.000,0.500,2410.000,1.000,1007.000,5.000,1.000
"04/09/08","11:13:13",32852.000,"cc",28260.531,6.00,6,0.100,22792.000,0.200,4614.000,0.300,2156.000,0.500,2335.000,1.000,953.000,5.000,2.000
"04/09/08","11:13:19",32807.000,"cc",28451.123,6.00,6,0.100,22787.000,0.200,4623.000,0.300,2104.000,0.500,2318.000,1.000,975.000,5.000,0
"04/09/08","11:13:25",32812.000,"cc",28225.361,6.00,6,0.100,22709.000,0.200,4637.000,0.300,2147.000,0.500,2333.000,1.000,986.000,5.000,0
"04/09/08","11:13:31",32874.000,"cc",28293.289,6.00,6,0.100,22753.000,0.200,4663.000,0.300,2146.000,0.500,2326.000,1.000,986.000,5.000,0
"04/09/08","11:13:37",32801.000,"cc",28216.441,6.00,6,0.100,22709.000,0.200,4621.000,0.300,2226.000,0.500,2263.000,1.000,982.000,5.000,0
"04/09/08","11:13:43",32882.000,"cc",28393.418,6.00,6,0.100,22661.000,0.200,4691.000,0.300,2159.000,0.500,2402.000,1.000,967.000,5.000,2.000
"04/09/08","11:13:49",32674.000,"cc",28198.219,6.00,6,0.100,22758.000,0.200,4557.000,0.300,2098.000,0.500,2311.000,1.000,950.000,5.000,0
"04/09/08","11:13:55",32475.000,"cc",28339.303,6.00,6,0.100,22465.000,0.200,4537.000,0.300,2187.000,0.500,2313.000,1.000,973.000,5.000,0
"04/09/08","11:14:01",33238.000,"cc",28356.615,6.00,6,0.100,22814.000,0.200,4817.000,0.300,2226.000,0.500,2390.000,1.000,991.000,5.000,0
"04/09/08","11:14:07",33398.000,"cc",28276.236,6.00,6,0.100,23119.000,0.200,4753.000,0.300,2163.000,0.500,2368.000,1.000,995.000,5.000,0
"04/09/08","11:14:13",33311.000,"cc",28368.455,6.00,6,0.100,23192.000,0.200,4701.000,0.300,2142.000,0.500,2354.000,1.000,922.000,5.000,0
"04/09/08","11:14:19",33226.000,"cc",28362.617,6.00,6,0.100,22860.000,0.200,4783.000,0.300,2191.000,0.500,2431.000,1.000,959.000,5.000,2.000
"04/09/08","11:14:25",33392.000,"cc",28359.998,6.00,6,0.100,23007.000,0.200,4764.000,0.300,2195.000,0.500,2442.000,1.000,984.000,5.000,0
"04/09/08","11:14:31",33561.000,"cc",28268.201,6.00,6,0.100,22903.000,0.200,4734.000,0.300,2376.000,0.500,2539.000,1.000,1009.000,5.000,0
"04/09/08","11:14:37",33623.000,"cc",28408.221,6.00,6,0.100,22888.000,0.200,4773.000,0.300,2333.000,0.500,2604.000,1.000,1025.000,5.000,0
"04/09/08","11:14:43",33274.000,"cc",28240.387,6.00,6,0.100,22740.000,0.200,4757.000,0.300,2277.000,0.500,2483.000,1.000,1016.000,5.000,1.000
"04/09/08","11:14:49",33460.000,"cc",28234.828,6.00,6,0.100,22877.000,0.200,4833.000,0.300,2283.000,0.500,2447.000,1.000,1020.000,5.000,0
"04/09/08","11:14:55",33116.000,"cc",28317.420,6.00,6,0.100,22627.000,0.200,4644.000,0.300,2350.000,0.500,2446.000,1.000,1048.000,5.000,1.000
"04/09/08","11:15:01",33085.000,"cc",28347.508,6.00,6,0.100,22844.000,0.200,4675.000,0.300,2200.000,0.500,2331.000,1.000,1035.000,5.000,0
"04/09/08","11:15:07",32792.000,"cc",28281.152,6.00,6,0.100,22747.000,0.200,4628.000,0.300,2139.000,0.500,2299.000,1.000,977.000,5.000,2.000
"04/09/08","11:15:13",33132.000,"cc",28383.463,6.00,6,0.100,22912.000,0.200,4686.000,0.300,2248.000,0.500,2369.000,1.000,916.000,5.000,1.000
"04/09/08","11:15:19",32703.000,"cc",28250.301,6.00,6,0.100,22699.000,0.200,4641.000,0.300,2122.000,0.500,2311.000,1.000,930.000,5.000,0
"04/09/08","11:15:25",33338.000,"cc",28294.613,6.00,6,0.100,23152.000,0.200,4594.000,0.300,2233.000,0.500,2363.000,1.000,996.000,5.000,0
"04/09/08","11:15:31",32879.000,"cc",28316.918,6.00,6,0.100,22834.000,0.200,4640.000,0.300,2175.000,0.500,2354.000,1.000,876.000,5.000,0
"04/09/08","11:15:37",33349.000,"cc",28309.119,6.00,6,0.100,22994.000,0.200,4698.000,0.300,2257.000,0.500,2398.000,1.000,1002.000,5.000,0
"04/09/08","11:15:43",33187.000,"cc",28361.918,6.00,6,0.100,22891.000,0.200,4645.000,0.300,2284.000,0.500,2409.000,1.000,957.000,5.000,1.000
"04/09/08","11:15:49",33195.000,"cc",28237.242,6.00,6,0.100,22913.000,0.200,4748.000,0.300,2159.000,0.500,2390.000,1.000,984.000,5.000,1.000
"04/09/08","11:15:55",33481.000,"cc",28368.873,6.00,6,0.100,22971.000,0.200,4821.000,0.300,2237.000,0.500,2438.000,1.000,1012.000,5.000,2.000
"04/09/08","11:16:01",33588.000,"cc",28359.248,6.00,6,0.100,23078.000,0.200,4736.000,0.300,2256.000,0.500,2491.000,1.000,1026.000,5.000,1.000
"04/09/08","11:16:07",32903.000,"cc",28247.699,6.00,6,0.100,22702.000,0.200,4634.000,0.300,2258.000,0.500,2364.000,1.000,944.000,5.000,1.000